Time,TemperatureF,DewpointF,PressureIn,WindDirection,WindDirectionDegrees,WindSpeedMPH,WindSpeedGustMPH,Humidity,HourlyPrecipIn,Conditions,Clouds,dailyrainin,SoftwareType,DateUTC
2013-01-31 06:22:00,46.0,43.0,30.24,NW,326,2.0,-999.0,90,-99.99,,,-99.99,,2013-01-31 14:22:00,
2013-01-31 06:32:00,46.0,43.0,30.24,NW,326,2.0,-999.0,90,-99.99,,,-99.99,,2013-01-31 14:32:00,
2013-01-31 06:42:00,46.0,43.0,30.24,NW,326,2.0,-999.0,90,-99.99,,,-99.99,,2013-01-31 14:42:00,
2013-01-31 06:52:00,46.0,43.0,30.24,NW,326,2.0,-999.0,90,-99.99,,,-99.99,,2013-01-31 14:52:00,
2013-01-31 07:02:00,46.0,43.0,30.24,NW,326,2.0,-999.0,90,-99.99,,,-99.99,,2013-01-31 15:02:00,
2013-01-31 08:22:00,48.0,44.0,30.25,North,5,5.0,-999.0,86,-99.99,,,-99.99,,2013-01-31 16:22:00,
2013-01-31 08:33:00,48.0,44.0,30.25,North,5,5.0,-999.0,86,-99.99,,,-99.99,,2013-01-31 16:33:00,
2013-01-31 08:42:00,48.0,44.0,30.25,North,5,5.0,-999.0,86,-99.99,,,-99.99,,2013-01-31 16:42:00,
2013-01-31 08:52:00,48.0,44.0,30.25,North,5,5.0,-999.0,86,-99.99,,,-99.99,,2013-01-31 16:52:00,
2013-01-31 09:01:00,48.0,44.0,30.25,North,5,5.0,-999.0,86,-99.99,,,-99.99,,2013-01-31 17:01:00,
2013-01-31 10:13:00,54.0,46.0,30.27,ENE,76,6.0,-999.0,74,-99.99,,,-99.99,,2013-01-31 18:13:00,
2013-01-31 10:22:00,54.0,46.0,30.27,ENE,76,6.0,-999.0,74,-99.99,,,-99.99,,2013-01-31 18:22:00,
2013-01-31 10:32:00,54.0,46.0,30.27,ENE,76,6.0,-999.0,74,-99.99,,,-99.99,,2013-01-31 18:32:00,
2013-01-31 10:43:00,54.0,46.0,30.27,ENE,76,6.0,-999.0,74,-99.99,,,-99.99,,2013-01-31 18:43:00,
2013-01-31 10:52:00,54.0,46.0,30.27,ENE,76,6.0,-999.0,74,-99.99,,,-99.99,,2013-01-31 18:52:00,
2013-01-31 11:01:00,54.0,46.0,30.27,ENE,76,6.0,-999.0,74,-99.99,,,-99.99,,2013-01-31 19:01:00,
2013-01-31 12:22:00,56.0,46.0,30.24,NNE,32,5.0,-999.0,68,-99.99,,,-99.99,,2013-01-31 20:22:00,
2013-01-31 12:32:00,56.0,46.0,30.24,NNE,32,5.0,-999.0,68,-99.99,,,-99.99,,2013-01-31 20:32:00,
2013-01-31 12:42:00,56.0,46.0,30.24,NNE,32,5.0,-999.0,68,-99.99,,,-99.99,,2013-01-31 20:42:00,
2013-01-31 12:52:00,56.0,46.0,30.24,NNE,32,5.0,-999.0,68,-99.99,,,-99.99,,2013-01-31 20:52:00,
2013-01-31 13:01:00,56.0,46.0,30.24,NNE,32,5.0,-999.0,68,-99.99,,,-99.99,,2013-01-31 21:01:00,
2013-01-31 14:22:00,61.0,47.0,30.19,North,360,4.0,-999.0,61,-99.99,,,-99.99,,2013-01-31 22:22:00,
2013-01-31 14:33:00,61.0,47.0,30.19,North,360,4.0,-999.0,61,-99.99,,,-99.99,,2013-01-31 22:33:00,
2013-01-31 14:42:00,61.0,47.0,30.19,North,360,4.0,-999.0,61,-99.99,,,-99.99,,2013-01-31 22:42:00,
2013-01-31 14:52:00,61.0,47.0,30.19,North,360,4.0,-999.0,61,-99.99,,,-99.99,,2013-01-31 22:52:00,
2013-01-31 15:01:00,61.0,47.0,30.19,North,360,4.0,-999.0,61,-99.99,,,-99.99,,2013-01-31 23:01:00,
2013-01-31 16:22:00,62.0,48.0,30.18,West,277,1.0,-999.0,60,-99.99,,,-99.99,,2013-02-01 00:22:00,
2013-01-31 16:32:00,62.0,48.0,30.18,West,277,1.0,-999.0,60,-99.99,,,-99.99,,2013-02-01 00:32:00,
2013-01-31 16:42:00,62.0,48.0,30.18,West,277,1.0,-999.0,60,-99.99,,,-99.99,,2013-02-01 00:42:00,
2013-01-31 16:51:00,62.0,48.0,30.18,West,277,1.0,-999.0,60,-99.99,,,-99.99,,2013-02-01 00:51:00,
2013-01-31 17:01:00,62.0,48.0,30.18,West,277,1.0,-999.0,60,-99.99,,,-99.99,,2013-02-01 01:01:00,
2013-01-31 18:22:00,57.0,45.0,30.16,West,259,0.0,-999.0,65,-99.99,,,-99.99,,2013-02-01 02:22:00,
2013-01-31 18:32:00,57.0,45.0,30.16,West,259,0.0,-999.0,65,-99.99,,,-99.99,,2013-02-01 02:32:00,
2013-01-31 18:42:00,57.0,45.0,30.16,West,259,0.0,-999.0,65,-99.99,,,-99.99,,2013-02-01 02:42:00,
2013-01-31 18:52:00,57.0,45.0,30.16,West,259,0.0,-999.0,65,-99.99,,,-99.99,,2013-02-01 02:52:00,
2013-01-31 19:01:00,57.0,45.0,30.16,West,259,0.0,-999.0,65,-99.99,,,-99.99,,2013-02-01 03:01:00,
2013-01-31 20:11:00,55.0,46.0,30.17,WNW,284,0.0,-999.0,72,-99.99,,,-99.99,,2013-02-01 04:11:00,
2013-01-31 20:22:00,55.0,46.0,30.17,WNW,284,0.0,-999.0,72,-99.99,,,-99.99,,2013-02-01 04:22:00,
2013-01-31 20:32:00,55.0,46.0,30.17,WNW,284,0.0,-999.0,72,-99.99,,,-99.99,,2013-02-01 04:32:00,
2013-01-31 20:42:00,55.0,46.0,30.17,WNW,284,0.0,-999.0,72,-99.99,,,-99.99,,2013-02-01 04:42:00,
2013-01-31 20:52:00,55.0,46.0,30.17,WNW,284,0.0,-999.0,72,-99.99,,,-99.99,,2013-02-01 04:52:00,
2013-01-31 21:02:00,55.0,46.0,30.17,WNW,284,0.0,-999.0,72,-99.99,,,-99.99,,2013-02-01 05:02:00,
2013-01-31 22:22:00,54.0,46.0,30.17,NW,311,2.0,-999.0,75,-99.99,,,-99.99,,2013-02-01 06:22:00,
2013-01-31 22:32:00,54.0,46.0,30.17,NW,311,2.0,-999.0,75,-99.99,,,-99.99,,2013-02-01 06:32:00,
2013-01-31 22:42:00,54.0,46.0,30.17,NW,311,2.0,-999.0,75,-99.99,,,-99.99,,2013-02-01 06:42:00,
2013-01-31 22:52:00,54.0,46.0,30.17,NW,311,2.0,-999.0,75,-99.99,,,-99.99,,2013-02-01 06:52:00,
2013-01-31 23:01:00,54.0,46.0,30.17,NW,311,2.0,-999.0,75,-99.99,,,-99.99,,2013-02-01 07:01:00,